Theta_e
346 347 347 348 348 346 347 347 348 346 346 347 348 348 349 349 349 348 346 346 348 346 347 347 349 345 347 348 346 344 344 344 344 344 344 345 344 344 343 341 340 338 338 339 344 344 345 345 345 344 344 344 345 343 343 343 343 343 342 341 343 340
344 345 346 344 345 347 347 346 347 348 348 349 348 349 349 348 348 349 345 348 345 343 345 344 344 342 346 348 349 346 345 344 345 344 344 344 345 344 344 342 339 339 337 337 339 348 346 346 346 345 344 345 345 345 345 344 344 341 341 342 342 340
344 344 345 344 346 345 343 345 345 346 346 347 348 349 348 348 346 345 345 342 346 349 348 349 350 347 345 341 348 345 345 345 345 344 343 343 342 342 342 341 340 339 338 336 343 343 341 344 348 345 345 347 346 345 346 345 345 344 341 342 341 341
342 343 341 342 344 344 343 345 345 346 348 347 346 346 345 346 344 346 343 348 348 349 350 351 350 348 349 348 346 345 345 344 344 343 341 345 341 343 341 340 340 337 337 341 343 341 339 341 342 347 347 344 344 344 345 345 342 343 343 340 340 341
344 344 343 342 343 342 345 345 346 347 347 345 345 346 346 346 346 347 347 349 348 348 348 349 349 349 349 349 348 348 348 348 348 346 342 346 345 344 346 344 342 343 341 340 340 342 343 341 342 342 343 344 343 344 343 344 342 341 343 345 344 341
344 345 345 343 342 342 344 342 345 348 346 346 345 346 346 347 346 348 348 348 349 349 348 347 348 347 348 349 349 348 349 350 349 349 347 345 340 343 343 341 342 342 340 339 341 344 344 342 341 342 341 343 343 344 343 340 341 343 344 343 345 340
343 343 344 345 345 342 342 344 343 344 344 344 345 346 344 345 346 346 347 347 347 347 346 347 347 348 347 349 348 348 348 349 350 349 350 349 347 343 340 340 341 342 342 340 339 341 344 344 343 340 341 340 342 342 342 341 340 341 342 342 344 339
342 342 344 344 344 341 343 344 345 345 345 344 343 343 344 343 346 346 346 348 347 346 345 345 346 347 348 349 349 348 348 347 350 349 350 350 347 346 343 339 341 340 338 340 339 342 340 341 343 344 340 340 342 343 343 341 341 342 341 342 342 343
342 343 343 344 343 342 343 345 344 344 343 344 345 345 345 347 347 346 347 347 348 347 346 346 345 345 346 346 348 348 346 348 348 349 348 347 348 348 347 346 343 338 340 339 339 341 340 339 341 342 341 340 340 340 343 343 343 341 339 340 341 342
343 343 343 343 342 343 343 343 345 345 346 348 349 349 349 349 349 349 347 347 347 347 346 345 345 345 344 345 346 347 347 346 346 347 347 347 348 348 347 347 347 345 341 339 338 340 339 339 338 340 339 339 340 341 342 341 341 341 341 342 343 342
345 344 345 343 344 345 346 345 347 349 349 348 350 351 351 351 349 349 347 348 347 346 347 346 346 344 344 345 346 346 345 347 345 346 347 347 348 347 347 346 346 346 346 345 343 341 338 340 340 338 340 339 339 342 342 342 340 340 339 341 343 345
347 346 345 346 346 345 348 349 350 349 349 350 351 350 349 349 349 346 346 346 346 346 346 346 346 345 345 345 344 344 346 346 345 346 348 347 346 346 345 345 346 348 348 348 346 345 345 340 339 338 338 338 341 341 340 341 342 342 341 342 343 345
349 348 347 346 347 350 349 349 349 349 349 350 349 347 346 346 346 346 346 346 346 346 347 346 346 345 345 346 346 347 345 345 345 345 346 346 345 346 345 344 346 346 345 346 346 347 346 345 344 342 342 341 341 341 343 343 343 343 341 342 343 342
348 348 348 349 348 346 348 349 350 351 350 348 347 347 347 347 346 347 347 346 346 345 345 346 346 346 344 344 345 345 343 344 344 346 346 347 344 344 343 344 343 341 340 341 342 345 344 344 342 343 344 345 344 344 344 344 343 343 343 344 344 345
347 348 349 347 349 348 348 349 349 348 347 348 347 346 346 346 346 346 346 345 345 345 346 345 346 346 345 345 345 344 343 343 346 346 345 345 345 344 344 343 343 341 341 339 340 342 343 343 343 343 343 345 344 344 345 344 344 343 342 344 345 344
347 346 345 346 349 348 350 350 347 345 347 347 345 345 345 346 346 345 345 345 345 345 345 345 345 345 345 345 344 343 343 346 346 346 344 344 345 343 344 343 343 342 339 339 339 339 342 342 342 342 343 344 343 343 343 343 343 343 343 345 344 346
344 346 347 346 347 347 346 346 346 346 346 346 345 344 344 345 345 344 344 343 344 345 345 345 346 346 345 346 343 345 344 346 348 346 346 344 344 344 344 341 342 343 342 340 340 340 341 342 341 341 342 341 342 342 343 343 343 344 345 344 344 344
345 345 346 345 346 346 346 346 345 344 345 344 345 344 344 345 343 343 344 342 343 343 344 344 345 345 348 345 345 344 345 345 345 345 345 344 344 345 344 344 342 343 342 341 340 341 340 340 340 340 340 342 343 342 342 342 343 343 343 343 344 344
343 345 345 346 347 347 346 346 345 345 344 343 344 343 344 343 343 343 343 343 343 343 343 343 343 344 344 343 344 344 345 344 344 344 343 343 344 343 343 343 342 342 345 344 341 342 341 340 339 339 339 340 342 342 343 343 344 343 342 345 344 344
344 344 345 346 344 345 344 343 341 342 341 341 342 341 343 341 343 342 343 343 342 342 342 343 342 343 342 342 342 342 342 343 342 342 341 342 340 341 340 340 340 340 340 341 342 342 343 341 341 341 339 340 340 341 341 340 343 342 342 342 344 344
345 345 343 344 344 343 341 341 340 338 337 340 339 341 340 342 342 341 342 342 342 342 342 342 341 342 341 341 341 342 341 341 341 341 341 340 340 339 339 338 337 338 337 337 339 342 342 342 339 336 338 339 338 341 341 342 341 341 341 342 342 341
341 343 343 342 342 341 341 339 338 337 337 338 338 337 337 339 338 339 339 340 340 341 341 340 341 342 341 340 340 339 340 340 340 341 341 340 339 338 339 338 337 336 340 336 336 338 341 340 333 332 328 330 333 336 340 341 340 341 341 339 339 340
340 340 340 342 340 340 342 343 341 340 338 336 338 338 337 336 336 335 335 336 337 338 338 338 339 339 339 338 338 338 339 339 340 339 340 340 340 339 338 337 337 335 334 337 336 338 341 341 331 333 333 330 325 324 330 335 341 339 338 338 339 340
338 340 340 341 340 341 342 342 342 340 338 337 335 336 336 335 334 334 333 334 334 335 336 336 337 337 336 336 336 336 336 336 337 338 335 333 332 334 336 337 337 336 336 330 332 334 339 339 336 331 324 325 325 325 319 323 327 332 335 337 339 337
338 338 339 339 340 341 340 339 338 337 337 337 338 336 333 331 331 332 332 332 331 333 332 332 333 332 332 331 332 333 332 331 330 330 331 330 328 329 329 330 331 333 334 331 329 332 334 337 336 336 330 325 323 321 320 323 326 327 333 333 334 336
334 336 337 338 339 339 339 336 335 333 332 332 331 332 330 329 329 328 328 330 330 328 327 327 327 327 327 327 327 329 330 329 329 328 328 327 327 327 327 328 328 330 330 332 331 329 330 334 335 335 335 333 330 322 322 325 325 319 330 331 331 333
333 334 335 335 335 335 335 336 335 333 333 332 329 328 329 329 328 327 328 327 327 326 323 323 323 323 324 324 324 325 326 327 326 326 327 327 326 327 327 327 328 328 328 329 331 327 328 330 332 334 334 335 334 333 333 327 321 322 319 326 329 330
331 331 332 332 331 333 332 332 331 331 330 330 329 327 326 326 327 326 326 325 326 323 322 321 321 320 321 321 322 321 323 324 323 323 323 323 323 325 326 327 328 329 329 329 329 327 327 329 327 327 332 331 332 332 333 332 330 324 320 319 322 328
328 329 329 330 330 330 330 330 329 329 327 327 327 326 325 325 324 325 324 325 325 323 321 321 320 320 320 320 320 320 321 321 322 322 322 323 323 324 325 325 324 324 324 324 324 327 327 326 327 326 327 328 329 329 329 330 330 328 322 320 319 321
326 326 327 328 328 327 327 327 327 326 326 324 324 323 323 321 322 324 323 323 323 320 320 321 320 318 319 318 318 319 318 318 318 318 318 319 320 321 321 322 323 323 323 323 323 323 322 322 323 324 326 326 325 326 327 326 326 325 325 324 319 320
324 324 325 324 325 325 325 325 325 324 322 321 321 321 320 320 321 321 321 320 320 319 319 318 318 317 317 317 318 317 317 317 318 318 317 317 318 317 318 319 321 322 321 320 319 319 320 322 322 322 321 322 323 324 324 324 323 324 324 322 321 321
322 322 322 323 323 323 322 322 322 322 320 320 320 320 319 318 319 319 320 319 319 319 318 317 316 315 316 316 317 317 317 317 316 316 316 316 317 316 317 318 318 317 317 318 317 315 316 317 317 318 319 320 320 322 323 323 325 326 324 323 322 321
319 320 320 321 320 320 321 320 320 320 319 319 318 318 317 317 318 318 318 318 317 316 316 315 314 314 315 316 316 315 315 314 314 315 315 315 315 315 315 315 315 314 314 314 313 313 313 315 315 315 315 318 320 320 319 321 323 323 323 324 323 320
317 319 319 319 319 318 318 319 319 319 318 318 317 317 316 316 317 317 317 316 315 315 314 314 314 314 314 314 314 314 314 314 314 314 314 314 314 314 314 313 313 311 311 312 311 312 312 313 314 315 316 316 317 317 319 320 320 320 320 319 318 319
317 318 318 318 318 317 317 318 317 317 316 317 315 315 315 316 316 315 315 315 315 314 313 314 313 314 313 313 313 313 313 313 313 313 313 313 313 314 314 313 312 311 310 310 311 311 311 312 312 312 314 314 314 315 316 317 318 318 319 319 318 318
317 316 316 317 317 316 316 316 315 315 315 315 315 315 314 314 314 315 315 314 313 313 313 313 313 313 312 312 312 311 311 311 311 312 312 312 312 312 313 312 311 311 310 311 311 311 311 311 311 312 312 313 313 313 315 316 315 315 315 317 317 317
317 316 316 316 316 315 315 314 314 315 314 314 314 313 312 313 313 313 314 313 312 312 313 313 312 312 311 311 311 310 310 310 310 310 311 311 310 311 312 312 312 311 311 312 312 311 311 310 311 311 311 311 311 312 313 314 314 313 314 315 315 315
Wind_Speed
8 8 9 10 9 9 10 11 9 9 10 10 10 11 11 12 10 9 7 5 5 1 3 3 6 4 8 5 6 5 5 6 5 5 6 6 7 7 7 5 4 3 2 3 4 6 7 6 8 7 7 6 9 9 2 1 1 1 1 2 2 6
8 9 9 7 7 8 8 9 8 8 8 8 9 9 8 6 7 6 6 5 2 3 3 4 4 3 4 7 7 4 4 5 6 5 5 5 6 7 6 5 2 2 1 2 5 5 8 7 8 7 7 9 8 5 1 1 3 1 1 2 1 10
9 9 9 8 7 7 9 8 8 8 7 7 7 6 5 5 4 4 3 3 4 3 3 4 4 4 3 6 6 5 4 4 4 4 3 4 4 5 5 4 4 1 1 6 7 2 1 5 6 8 8 8 6 2 1 1 1 2 3 4 1 12
9 9 8 7 7 7 6 6 6 6 6 6 5 4 4 3 4 3 4 3 2 3 3 3 5 6 6 6 7 7 6 7 7 6 4 7 8 7 7 7 7 7 7 7 3 4 3 2 3 5 4 3 2 2 3 3 3 1 3 2 2 12
8 8 7 7 7 7 7 6 5 5 6 4 5 4 4 4 4 4 4 2 2 2 2 2 2 2 2 2 3 4 5 3 2 3 4 2 3 5 8 6 6 8 4 4 3 3 3 1 2 2 2 2 2 2 3 2 2 3 2 2 4 10
8 8 8 7 7 7 7 6 7 7 6 5 5 5 4 4 4 3 2 2 1 2 1 2 1 1 1 1 1 2 1 2 1 2 0 1 1 1 1 0 1 0 1 3 3 3 3 4 3 3 3 2 3 3 3 3 3 2 4 3 5 11
8 8 8 8 7 7 6 5 6 6 5 5 5 5 5 4 3 2 1 1 0 1 1 1 1 1 1 1 1 1 1 1 0 1 1 1 1 0 2 1 1 1 1 2 3 3 4 5 5 5 4 4 3 4 3 3 3 4 4 4 4 13
8 8 8 8 8 6 6 6 6 5 5 5 4 4 3 3 3 2 1 0 1 2 1 1 1 0 0 1 1 1 1 1 1 1 1 2 1 1 1 1 1 3 3 2 3 3 4 4 5 5 6 5 4 4 2 4 4 4 5 4 4 12
9 9 8 7 7 6 6 6 6 5 5 5 4 4 4 4 3 2 2 1 0 1 1 1 1 2 2 1 1 1 1 1 1 1 2 1 2 1 2 2 1 4 3 3 3 4 4 5 4 5 5 6 6 5 4 5 5 6 5 5 6 7
9 9 8 7 7 7 6 6 5 5 5 4 4 3 3 2 2 1 2 1 0 1 1 1 1 1 2 2 1 1 1 2 2 1 2 2 2 2 2 2 3 2 4 3 4 3 3 5 6 6 6 7 6 6 6 6 6 6 6 6 5 3
9 9 7 7 6 7 6 6 6 5 4 4 3 2 1 1 1 2 1 1 1 1 1 1 1 2 1 1 1 1 2 2 2 2 3 3 2 3 3 3 3 3 4 4 4 4 5 6 6 7 7 7 7 5 6 6 7 7 7 7 6 6
9 9 8 8 7 7 6 6 5 4 4 4 2 1 2 2 2 3 2 1 1 1 1 1 1 1 1 0 1 2 2 2 2 2 2 2 3 3 3 4 4 3 4 4 4 5 4 6 7 7 7 7 6 6 7 7 7 7 8 8 7 6
7 7 6 6 6 5 5 6 6 5 4 4 3 3 3 3 2 2 3 2 1 1 0 1 1 1 1 1 1 1 2 2 1 2 2 3 3 2 2 3 2 4 4 5 5 5 5 6 6 7 7 8 7 7 7 7 7 7 8 8 7 7
7 7 7 5 5 6 6 5 5 5 4 4 3 4 4 3 2 2 2 2 0 2 1 1 1 1 1 1 0 1 1 0 1 2 1 2 2 2 2 2 3 4 4 5 5 5 5 5 6 6 6 6 6 7 7 7 7 7 7 7 7 7
7 7 8 7 6 6 6 6 5 4 4 4 4 3 3 2 2 2 1 2 2 2 2 2 2 2 1 1 0 0 0 0 0 1 3 2 3 3 2 3 2 3 4 5 5 5 6 6 6 6 7 6 6 6 6 7 7 7 8 7 6 7
9 8 8 7 7 7 7 6 5 5 5 5 4 4 4 3 3 2 3 3 3 3 1 1 1 2 2 2 2 2 2 2 3 2 2 2 3 3 3 4 3 4 4 5 5 6 5 6 6 7 7 7 7 7 7 7 7 8 8 7 7 6
10 10 9 8 8 8 7 7 6 6 6 5 4 4 3 2 3 3 3 4 4 3 2 2 2 1 2 3 2 2 3 3 3 2 3 3 4 3 4 4 4 4 5 5 5 6 6 6 6 6 7 8 7 7 7 7 7 7 7 8 8 8
9 9 8 7 8 7 7 7 6 5 5 5 5 3 3 3 4 4 4 4 4 4 4 4 4 3 3 3 3 3 3 3 3 3 3 4 4 3 3 3 5 4 5 5 5 6 7 7 7 7 7 7 7 7 7 8 7 7 7 8 8 8
8 7 7 8 8 8 8 7 7 6 6 5 4 4 4 5 5 4 4 4 4 4 4 4 4 4 5 4 4 3 3 4 4 4 4 4 3 4 4 5 5 5 5 5 6 6 6 6 7 7 7 9 8 9 8 7 7 7 7 7 8 8
7 7 7 6 6 6 5 5 5 5 5 5 5 5 5 5 4 5 5 5 5 5 4 5 5 5 4 4 4 4 4 5 5 4 5 5 5 5 7 8 7 7 8 7 6 5 5 6 7 8 9 9 8 9 10 8 8 8 7 7 7 6
6 5 5 5 4 3 4 5 5 5 6 6 4 4 5 5 5 6 6 6 6 5 6 6 5 5 5 4 4 5 5 4 4 4 3 3 4 4 4 4 5 5 7 6 6 5 5 6 7 8 7 8 8 8 9 9 9 7 7 6 6 6
7 7 6 6 5 4 4 4 5 6 6 3 2 3 5 5 5 6 7 7 6 6 6 6 6 6 6 7 6 6 5 5 5 5 5 4 4 4 4 4 5 6 5 7 7 5 5 7 6 7 9 9 8 6 7 7 8 6 6 6 5 6
8 7 7 6 5 6 6 6 6 6 5 5 5 4 5 6 6 7 7 7 7 6 6 7 7 6 6 7 7 7 7 7 7 7 6 6 6 6 5 6 6 6 7 7 7 5 5 5 8 7 8 9 7 8 4 5 5 4 6 7 7 7
8 7 6 6 6 7 8 8 7 6 6 5 6 6 7 7 7 7 7 7 7 7 7 7 8 8 7 8 8 7 7 8 9 9 8 8 9 9 9 8 8 8 7 9 8 7 5 6 7 8 7 7 9 8 9 4 6 6 8 8 7 8
7 7 6 5 6 6 7 6 6 7 6 6 5 5 6 5 5 6 6 7 8 8 8 8 8 8 7 7 7 7 7 7 8 8 7 7 7 7 8 8 10 9 9 8 10 9 9 7 8 6 7 8 7 7 7 10 10 10 5 5 7 8
6 6 6 5 5 4 4 5 6 6 6 5 5 4 4 4 4 5 6 6 8 8 8 8 8 8 8 7 8 8 7 7 7 7 6 6 6 7 8 8 8 7 9 10 10 10 10 8 8 8 8 8 7 8 10 10 11 9 6 9 9 8
6 6 5 5 4 3 3 2 1 1 1 2 4 4 5 5 5 5 4 5 6 8 9 8 8 8 8 7 7 7 7 6 7 6 6 6 6 7 7 7 7 6 7 7 8 9 10 9 9 8 7 7 8 9 9 9 8 11 12 8 8 10
6 6 5 5 5 4 3 3 3 3 4 3 4 5 5 5 4 4 4 4 6 6 7 8 7 7 7 7 6 6 6 6 6 6 5 5 5 5 6 7 8 8 7 7 8 8 10 9 9 9 9 10 10 10 10 11 12 10 12 12 11 9
7 6 6 6 5 5 5 4 3 3 3 4 4 4 4 4 4 4 4 4 5 7 7 8 8 7 7 7 7 6 6 6 6 6 5 5 5 7 7 8 8 7 7 7 7 8 9 8 9 9 10 10 10 9 10 10 11 9 10 11 12 13
8 7 6 6 6 6 5 4 4 4 5 4 3 3 3 3 3 2 4 5 6 6 6 6 7 8 8 8 8 8 7 8 7 6 6 6 7 7 7 7 8 8 8 8 7 7 9 9 8 9 10 10 10 10 10 9 9 10 11 11 13 13
8 7 7 6 6 6 6 5 5 6 6 5 4 4 3 3 2 3 3 5 6 6 6 6 7 7 8 8 7 8 7 6 6 6 6 7 6 7 7 7 6 8 8 9 8 9 9 9 8 9 9 8 9 10 10 11 11 11 11 12 12 13
9 8 7 6 6 6 5 6 6 6 5 4 3 2 2 3 3 3 4 5 4 5 6 6 6 6 7 8 6 7 7 7 7 7 6 6 6 7 7 6 7 7 7 8 8 8 7 8 10 8 9 9 9 10 11 10 11 11 11 12 12 13
9 8 8 7 7 6 6 6 6 7 7 6 5 5 5 5 4 4 4 5 5 6 5 6 6 6 7 7 6 6 7 6 6 6 7 7 6 7 7 6 8 8 8 9 8 9 8 9 9 9 8 9 8 8 9 9 10 11 11 12 12 13
10 8 8 7 7 7 8 7 8 8 7 7 7 6 6 6 5 5 5 6 5 6 6 6 7 7 7 6 6 6 6 6 7 7 7 7 7 7 8 6 8 9 9 8 9 10 8 10 9 10 9 8 9 9 9 9 10 10 10 11 11 12
9 8 8 8 7 8 8 9 8 8 7 7 7 6 6 6 6 6 6 6 6 6 6 6 7 6 6 6 6 7 7 8 8 8 8 8 7 6 7 6 7 8 8 8 9 9 8 10 9 11 10 9 9 8 9 9 9 10 10 10 11 12
9 9 8 8 8 8 9 9 10 10 9 8 7 7 6 6 6 6 6 6 6 6 6 6 6 6 7 7 7 8 8 9 9 8 8 9 9 7 7 6 6 7 8 7 8 10 9 9 10 11 10 10 9 9 9 9 9 9 10 10 10 10
9 9 8 8 8 9 9 10 10 10 9 9 9 8 7 7 7 7 7 6 6 7 7 6 5 5 6 7 7 8 8 8 9 9 9 9 9 8 7 7 7 8 8 8 8 9 9 9 9 9 9 10 9 9 9 10 9 9 9 9 9 9
Wind_Direction
126 126 121 122 124 127 123 128 119 106 111 117 122 118 120 122 117 118 122 124 196 158 103 130 181 105 157 102 99 114 99 100 89 85 96 94 97 103 106 106 112 118 130 126 126 109 94 136 165 170 170 177 205 223 253 340 269 111 330 113 216 92
133 131 130 129 129 130 139 145 131 139 140 134 137 147 143 132 124 121 164 179 113 107 135 120 106 136 123 145 130 103 115 113 100 93 79 87 89 94 103 106 107 86 131 204 206 188 139 127 157 175 173 200 215 230 127 273 291 299 323 121 263 108
133 136 135 133 133 135 139 134 141 140 141 150 141 153 146 144 126 133 97 113 131 121 109 90 86 73 87 51 91 114 113 121 117 105 125 120 120 104 104 115 118 151 264 244 229 218 198 144 143 171 186 212 225 241 195 215 248 274 254 55 317 122
135 140 146 131 133 133 132 134 137 149 145 142 154 136 125 130 114 109 125 104 106 124 113 110 120 155 180 168 141 170 165 167 169 162 171 191 156 153 152 157 161 172 211 210 207 211 198 211 162 176 208 215 236 214 223 206 233 231 292 120 91 129
137 140 134 132 132 132 135 143 132 126 131 133 131 135 132 135 136 144 135 142 121 113 104 106 114 126 140 138 128 148 179 189 132 125 197 228 210 149 191 170 167 198 212 221 225 224 245 189 250 224 206 260 242 246 247 235 263 279 246 239 116 146
138 136 133 135 130 129 142 133 122 128 130 130 129 129 132 139 139 136 131 129 126 138 124 92 87 79 96 104 126 95 97 107 126 92 49 336 38 289 260 250 315 258 196 209 225 248 235 249 240 237 251 226 250 237 254 261 253 250 266 255 153 160
132 132 130 122 129 139 133 129 128 130 133 129 134 135 139 139 132 116 101 94 355 328 56 69 98 102 63 65 66 48 75 82 77 75 59 291 57 189 288 299 246 239 261 238 218 215 226 233 263 270 241 242 246 261 262 269 257 245 252 241 166 167
131 129 126 129 131 130 131 135 124 132 133 124 140 132 127 125 135 151 168 224 333 338 358 346 335 332 4 30 20 40 1 11 350 325 35 295 284 342 313 267 264 262 264 238 228 222 245 233 235 249 265 260 259 264 280 293 302 295 286 266 264 167
130 130 128 133 130 129 135 138 140 139 130 152 131 129 135 151 165 148 155 247 334 314 353 6 3 350 332 2 10 354 336 353 332 333 309 317 318 295 276 280 294 275 239 254 247 232 231 240 243 240 245 249 247 260 241 250 254 264 264 273 264 181
133 130 130 136 131 138 141 135 139 121 109 126 103 108 132 134 144 150 147 175 57 359 334 29 35 28 353 11 354 346 337 355 357 326 310 329 349 318 312 304 273 271 291 263 260 260 277 266 247 241 242 253 234 249 251 248 249 239 258 254 250 233
129 131 136 135 140 137 140 126 115 126 130 105 105 121 123 120 133 117 64 75 69 68 348 9 26 30 60 359 15 343 15 15 358 3 343 345 341 326 313 301 303 312 307 303 310 296 270 267 272 267 254 247 256 243 245 252 256 258 253 249 250 250
136 141 140 139 142 138 130 126 129 118 105 103 108 116 123 107 106 78 75 79 77 56 64 57 17 68 62 23 11 34 28 19 16 346 335 348 328 331 313 315 311 313 303 293 285 282 281 273 271 275 276 274 275 273 265 260 256 254 254 260 261 245
129 131 131 133 128 120 121 122 120 116 116 128 143 118 95 88 79 102 126 106 79 78 306 65 78 37 16 16 44 26 32 30 5 341 329 325 306 292 294 297 314 320 308 306 291 278 274 276 274 274 281 284 278 271 271 273 270 265 266 258 252 259
140 139 136 134 132 127 126 120 121 120 126 135 120 110 101 100 112 108 104 104 81 66 325 47 30 83 6 37 75 94 95 167 346 326 307 302 312 321 308 301 313 308 317 307 299 291 288 283 282 282 280 284 283 285 289 282 279 278 271 269 268 260
143 138 138 134 125 125 124 117 113 111 111 108 108 95 91 89 79 54 61 99 62 63 25 37 29 344 341 276 259 82 305 28 5 305 310 342 318 302 296 310 326 318 312 296 290 303 300 294 292 292 290 289 285 289 280 277 277 270 270 269 270 262
139 136 126 127 128 124 120 108 101 97 96 88 81 76 67 55 48 46 25 35 46 55 55 80 31 321 301 310 336 357 0 356 346 316 310 309 291 295 317 309 315 309 303 298 297 292 289 288 290 288 292 294 291 289 288 287 286 284 283 282 268 265
135 128 126 130 128 121 111 109 101 91 86 82 76 75 75 69 54 46 45 48 40 36 22 44 13 324 310 311 324 333 355 357 328 310 298 304 299 314 322 316 301 290 280 281 277 278 280 278 280 284 284 286 290 288 282 283 281 281 282 273 267 261
131 131 129 132 127 124 117 112 108 104 92 85 77 71 71 65 58 46 40 48 41 41 17 22 6 350 329 332 336 343 344 338 310 302 300 302 322 316 298 285 299 303 302 305 298 295 295 295 292 292 290 285 286 285 282 275 270 267 268 270 268 267
134 130 133 130 125 119 119 114 109 110 105 89 82 73 61 60 54 51 45 44 44 44 33 25 28 11 3 344 341 346 338 339 324 319 319 311 311 311 317 320 316 318 312 304 303 305 305 304 302 296 291 283 277 270 269 266 267 265 265 269 275 279
122 125 127 129 124 118 122 123 113 107 86 70 72 68 59 58 56 59 55 47 53 46 40 33 26 26 15 360 349 359 354 353 343 333 330 333 337 346 338 331 331 331 323 310 297 295 291 295 291 281 278 279 272 267 265 264 262 266 263 263 268 268
110 111 111 115 112 116 100 100 91 76 76 74 62 74 72 59 59 54 42 48 51 51 47 43 36 33 23 15 8 14 12 6 331 335 338 345 357 336 335 327 314 294 295 302 293 293 293 289 287 284 276 270 276 262 253 252 257 262 270 266 263 264
112 102 91 85 89 90 84 85 94 93 107 102 97 77 83 72 60 57 48 45 43 44 46 47 39 34 27 21 15 16 11 349 357 357 353 356 345 329 329 319 310 311 301 307 306 309 304 305 290 304 313 313 296 276 238 237 249 258 266 259 258 265
82 83 76 67 71 77 81 82 87 100 106 92 69 75 88 84 75 68 60 53 46 40 34 36 34 33 29 24 20 12 6 6 6 7 358 354 346 341 337 332 332 324 321 312 302 308 301 304 310 315 306 293 303 314 290 233 219 247 248 264 272 277
88 77 73 68 67 76 78 82 87 104 116 117 114 106 95 84 81 77 68 59 53 45 45 42 38 34 31 28 25 22 17 12 16 17 17 17 9 3 358 343 344 336 334 315 319 319 315 313 316 316 308 317 311 304 301 306 319 295 282 277 274 277
79 76 76 83 96 101 107 103 102 104 107 117 128 124 110 90 86 84 73 61 53 42 42 45 41 38 37 34 29 30 30 32 28 21 19 21 15 11 3 359 357 347 335 325 318 318 312 311 303 301 298 304 300 285 307 317 322 300 292 287 275 271
72 83 81 73 79 108 119 136 149 155 154 159 141 126 118 109 100 75 73 75 60 46 47 43 42 40 40 36 37 35 36 33 29 26 21 16 12 7 8 5 358 346 337 331 325 313 306 303 303 300 290 281 290 291 304 314 313 300 303 286 289 280
77 89 74 69 64 58 65 53 44 358 13 129 107 84 77 69 75 78 74 68 68 51 43 47 43 41 37 36 36 31 30 30 31 25 14 11 10 5 352 351 343 343 329 321 320 308 308 311 312 294 296 290 286 283 285 294 296 305 298 302 296 294
76 82 79 71 60 48 78 72 60 48 40 54 75 97 88 82 76 73 66 67 87 66 47 46 49 43 39 36 31 27 26 26 23 18 2 13 4 358 345 332 333 327 325 320 317 307 306 305 307 306 317 310 302 297 294 285 282 289 294 298 300 291
84 78 72 66 64 65 61 70 82 94 103 82 86 92 84 69 71 66 71 66 75 86 66 50 44 42 39 36 30 27 26 26 19 12 360 358 355 346 341 335 338 341 341 336 326 317 317 324 324 313 314 305 305 301 297 288 289 288 295 301 298 300
84 82 80 76 76 81 83 88 93 92 85 93 103 89 68 68 61 56 68 69 70 62 50 46 45 37 33 34 29 27 31 27 20 12 5 360 352 349 347 341 338 338 335 338 330 331 333 324 318 319 320 315 306 304 298 299 296 300 296 293 298 303
88 86 81 78 76 77 76 73 81 84 85 82 75 78 83 66 59 56 72 77 80 67 51 49 48 39 32 26 29 31 23 21 21 12 3 359 358 352 350 348 350 347 349 350 340 341 335 325 328 325 318 312 312 312 314 309 306 306 305 302 302 299
90 84 82 79 75 76 78 80 83 87 86 77 67 65 54 54 56 70 76 94 96 84 62 55 41 41 32 23 26 26 20 16 21 10 5 0 358 0 359 352 13 2 356 354 358 350 338 339 339 325 327 330 324 321 320 321 322 319 315 312 307 302
89 84 78 77 75 71 72 76 81 84 83 74 71 73 78 73 61 72 76 70 66 69 66 57 45 40 35 27 27 26 20 18 14 12 6 5 7 10 4 10 17 11 5 5 2 352 347 346 342 342 334 325 319 323 321 321 319 322 321 320 316 309
95 88 85 81 78 77 77 79 78 81 85 82 77 72 70 75 72 70 69 68 70 73 69 61 54 47 38 30 37 32 26 24 20 15 14 15 14 19 16 18 23 16 10 8 357 353 350 349 346 348 342 337 339 328 326 331 328 323 326 323 317 316
97 89 84 83 82 82 80 78 80 79 80 84 81 79 75 70 67 76 79 76 73 72 68 60 56 51 38 41 38 39 34 30 25 20 19 18 12 23 21 24 24 19 17 9 359 355 350 348 349 347 343 343 336 332 333 328 329 330 328 322 317 318
94 90 87 86 85 84 84 82 81 81 79 81 84 81 78 76 78 73 74 76 74 72 71 69 60 52 47 42 39 38 39 34 28 26 24 22 19 18 17 19 21 22 16 12 7 5 1 352 352 350 346 342 335 334 331 338 338 335 329 327 329 326
88 88 83 83 85 83 83 84 80 79 80 81 80 80 81 83 81 79 79 78 79 79 77 68 65 57 53 50 43 38 38 35 33 30 28 26 24 20 15 20 17 17 13 6 6 11 4 0 355 352 352 345 341 336 340 338 333 333 329 328 328 327